Regional Weather Roundup
Issued by NWS Little Rock, AR

Home | Current Version | Previous Version | Text Only | Print | Product List | Glossary On
Versions: 1 2 3 4 5 6 7 8 9 10 11 12 13 14 15 16 17 18 19 20 21 22 23 24 25 26 27 28 29 30 31 32 33 34 35 36 37 38 39 40 41 42 43 44 45 46 47 48
000
ASUS44 KLZK 250005
RWRLZK

WEATHER ROUNDUP FOR ARKANSAS
NATIONAL WEATHER SERVICE LITTLE ROCK AR
600 PM CST WED DEC 24 2014

NOTE: "FAIR" INDICATES FEW OR NO CLOUDS BELOW 12,000 FEET WITH NO
SIGNIFICANT WEATHER AND/OR OBSTRUCTIONS TO VISIBILITY.

ARZ001-003-010-029-250100-
NORTHWEST ARKANSAS

CITY           SKY/WX    TMP DP  RH WIND       PRES   REMARKS
FAYETTEVILLE   CLOUDY    36  30  79 W12       29.93R
6HR MIN TEMP:  36; 6HR MAX TEMP:  37; 6HR PCP: TRACE;

FORT SMITH     CLOUDY    41  31  67 W12       29.97R
6HR MIN TEMP:  41; 6HR MAX TEMP:  42;

HARRISON       CLOUDY    37  31  78 W9        29.88R
6HR MIN TEMP:  36; 6HR MAX TEMP:  41; 6HR PCP:  0.01;

BENTONVILLE    CLOUDY    36  28  75 W9        29.92R
6HR MIN TEMP:  36; 6HR MAX TEMP:  37;

ROGERS         CLOUDY    36  31  82 W9          N/A
6HR MIN TEMP:  35; 6HR MAX TEMP:  37; 6HR PCP: TRACE;

SILOAM SPGS    CLOUDY    36  27  69 W7        29.94R
6HR MIN TEMP:  36; 6HR MAX TEMP:  37;

HIGHFILL       CLOUDY    36  30  79 W9        29.92R
6HR MIN TEMP:  36; 6HR MAX TEMP:  38; 6HR PCP: TRACE;

SPRINGDALE     CLOUDY    37  30  75 W13       29.93R
$$

ARZ004-005-016-250100-
NORTH CENTRAL ARKANSAS

CITY           SKY/WX    TMP DP  RH WIND       PRES   REMARKS
BATESVILLE     CLOUDY    41  32  70 W7        29.90R
6HR MIN TEMP:  41; 6HR MAX TEMP:  45;

FLIPPIN        CLOUDY    39  28  65 NW8G16    29.88R
6HR MIN TEMP:  39; 6HR MAX TEMP:  43;

MTN HOME       CLOUDY    39  31  72 VRB7      29.87R
6HR MIN TEMP:  37; 6HR MAX TEMP:  40; 6HR PCP: TRACE;

$$

ARZ040-041-250100-
WEST CENTRAL ARKANSAS

CITY           SKY/WX    TMP DP  RH WIND       PRES   REMARKS
MENA           CLOUDY    41  32  70 W6        29.96R
MOUNT IDA      CLOUDY    41  31  67 NW7       29.93R
6HR MIN TEMP:  41; 6HR MAX TEMP:  44;

$$

ARZ009-017-025-026-028-250100-
NORTHEAST ARKANSAS

CITY           SKY/WX    TMP DP  RH WIND       PRES   REMARKS
CORNING        CLOUDY    41  37  87 W7        29.87R
JONESBORO      CLOUDY    41  37  86 W9        29.88R
6HR MIN TEMP:  41; 6HR MAX TEMP:  45; 6HR PCP:  0.01;

NEWPORT        CLOUDY    44  34  68 W13       29.91R
6HR MIN TEMP:  43; 6HR MAX TEMP:  45;

WALNUT RIDGE   CLOUDY    43  32  65 W10       29.86R
6HR MIN TEMP:  43; 6HR MAX TEMP:  46;

BLYTHEVILLE    CLOUDY    42  37  82 W9        29.87R
6HR MIN TEMP:  42; 6HR MAX TEMP:  45; 6HR PCP: TRACE;

$$

ARZ022-023-033-042-044-250100-
CENTRAL ARKANSAS

CITY           SKY/WX    TMP DP  RH WIND       PRES   REMARKS
LITTLE ROCK    CLOUDY    44  32  62 W8        29.95R
6HR MIN TEMP:  44; 6HR MAX TEMP:  46;

N LITTLE ROCK  CLOUDY    42  35  76 W7        29.95R
6HR MIN TEMP:  42; 6HR MAX TEMP:  44;

JACKSONVILLE   CLOUDY    43  34  69 W9        29.93R
6HR MIN TEMP:  43; 6HR MAX TEMP:  46;

SEARCY         CLOUDY    44  35  70 W6        29.93R
6HR MIN TEMP:  43; 6HR MAX TEMP:  45; 6HR PCP: TRACE;

HOT SPRINGS    CLOUDY    42  32  67 W7G16     29.96R
6HR MIN TEMP:  42; 6HR MAX TEMP:  45;

RUSSELLVILLE   CLOUDY    42  33  70 W14       29.94R
6HR MIN TEMP:  42; 6HR MAX TEMP:  45;

CLINTON        MOCLDY    43  32  65 SW5       29.93R
$$

ARZ036-250100-
EAST ARKANSAS

CITY           SKY/WX    TMP DP  RH WIND       PRES   REMARKS
WEST MEMPHIS   CLOUDY    41  38  89 W7        29.89R
6HR MIN TEMP:  41; 6HR MAX TEMP:  46; 6HR PCP:  0.01;

$$

ARZ050-053-066-070-073-250100-
SOUTHWEST ARKANSAS

CITY           SKY/WX    TMP DP  RH WIND       PRES   REMARKS
ARKADELPHIA    MOCLDY    44  35  70 W5        30.00R
6HR MIN TEMP:  44; 6HR MAX TEMP:  47; 6HR PCP: TRACE;

CAMDEN         CLOUDY    45  32  61 MISG      30.00R
TEXARKANA      PTCLDY    42  32  67 W5        30.01R
6HR MIN TEMP:  42; 6HR MAX TEMP:  47;

EL DORADO      CLOUDY    43  34  70 W3        30.01R
6HR MIN TEMP:  43; 6HR MAX TEMP:  49; 6HR PCP: TRACE;

DE QUEEN       MOCLDY    42  32  67 NW5       30.00R
6HR MIN TEMP:  41; 6HR MAX TEMP:  46;

$$

ARZ056-057-069-250100-
SOUTHEAST ARKANSAS

CITY           SKY/WX    TMP DP  RH WIND       PRES   REMARKS
PINE BLUFF     CLOUDY    43  34  70 W9        29.96R
6HR MIN TEMP:  43; 6HR MAX TEMP:  46; 6HR PCP: TRACE;

STUTTGART      CLOUDY    45  34  65 W9        29.95R
6HR MIN TEMP:  45; 6HR MAX TEMP:  46; 6HR PCP:  0.01;

MONTICELLO     MOCLDY    42  37  82 W7        29.97R
6HR MIN TEMP:  42; 6HR MAX TEMP:  47; 6HR PCP:  0.02;


$$




USA.gov is the U.S. government's official web portal to all federal, state and local government web resources and services.